Weather History for Hutchinson, KS

Change the Weather History Date:

Tuesday, October 18, 2011

  Actual Average Record
Temperature  
Mean Temperature 48 °F -  
Max Temperature 59 °F 67 °F 90 °F (2005)
Min Temperature 39 °F 41 °F 23 °F (1999)
Degree Days  
Heating Degree Days 17    
Moisture  
Dew Point 34 °F    
Average Humidity 64    
Maximum Humidity 93    
Minimum Humidity 30    
Precipitation  
Precipitation 0.02 in - - ()
Sea Level Pressure  
Sea Level Pressure 30.11 in    
Wind  
Wind Speed 13 mph (NNW)    
Max Wind Speed 23 mph    
Max Gust Speed 33 mph    
Visibility 10 miles    
Events Rain    
Averages and records for this station are not official NWS values.
T = Trace of Precipitation, MM = Missing Value Source: NWS Daily Summary

Daily Weather History Graph

Daily Weather History Graph

Search for Another Location

Airport:

Trip Planner

Search our weather history database for the weather conditions in past years. The results will help you decide how hot, cold, wet, or windy it might be!

Date:

Astronomy

Oct. 18, 2011 Rise Set
Actual Time 7:42 AM CDT 6:49 PM CDT
Civil Twilight 7:16 AM CDT 7:16 PM CDT
Nautical Twilight 6:45 AM CDT 7:47 PM CDT
Astronomical Twilight 6:14 AM CDT 8:17 PM CDT
Moon 11:35 PM CDT (10/18) 1:31 PM CDT (10/18)
Length of Visible Light 12h 00m
Length of Day
11h 07m
Waning Gibbous, 64% of the Moon is Illuminated
Oct 18
Waning Gibbous
Oct 19
Last Quarter
Oct 26
New
Nov 2
First Quarter
Nov 10
Full

Hourly Weather History & Observations

Time (CDT) Temp. Windchill Dew Point Humidity Pressure Visibility Wind Dir Wind Speed Gust Speed Precip Events Conditions
12:25 AM 46.4 °F 40.4 °F 42.8 °F 87% 30.12 in 10.0 mi North 13.8 mph 24.2 mph 0.01 in Rain Light Rain
12:52 AM 46.0 °F 39.9 °F 42.1 °F 86% 30.10 in 10.0 mi North 13.8 mph 27.6 mph 0.02 in Rain Light Rain
1:04 AM 44.6 °F 38.4 °F 42.8 °F 93% 30.12 in 10.0 mi North 12.7 mph 25.3 mph 0.00 in Rain Light Rain
1:43 AM 44.6 °F 39.2 °F 39.2 °F 81% 30.12 in 10.0 mi North 10.4 mph - 0.00 in   Overcast
1:52 AM 44.1 °F 38.6 °F 37.9 °F 79% 30.10 in 10.0 mi North 10.4 mph - 0.00 in   Overcast
2:52 AM 44.1 °F 39.5 °F 39.0 °F 82% 30.11 in 10.0 mi North 8.1 mph - N/A   Overcast
3:52 AM 42.1 °F 37.7 °F 39.0 °F 89% 30.09 in 10.0 mi North 6.9 mph - N/A   Scattered Clouds
4:52 AM 41.0 °F 35.8 °F 39.0 °F 93% 30.09 in 10.0 mi NW 8.1 mph - N/A   Clear
5:52 AM 41.0 °F 35.2 °F 39.0 °F 93% 30.08 in 10.0 mi NW 9.2 mph - N/A   Clear
6:52 AM 41.0 °F 34.7 °F 37.9 °F 89% 30.09 in 10.0 mi NW 10.4 mph - N/A   Clear
7:52 AM 39.9 °F 33.4 °F 37.0 °F 89% 30.10 in 10.0 mi NW 10.4 mph - N/A   Clear
8:52 AM 45.0 °F 39.3 °F 37.9 °F 76% 30.11 in 10.0 mi NNW 11.5 mph - N/A   Clear
9:52 AM 46.9 °F - 37.0 °F 68% 30.13 in 10.0 mi NNW 15.0 mph - N/A   Clear
10:52 AM 48.9 °F - 36.0 °F 61% 30.14 in 10.0 mi North 17.3 mph 25.3 mph N/A   Clear
11:52 AM 52.0 °F - 36.0 °F 54% 30.14 in 10.0 mi NNW 19.6 mph 29.9 mph N/A   Clear
12:52 PM 54.0 °F - 34.0 °F 47% 30.12 in 10.0 mi North 18.4 mph 33.4 mph N/A   Clear
1:52 PM 57.0 °F - 28.0 °F 33% 30.09 in 10.0 mi North 23.0 mph 32.2 mph N/A   Clear
2:52 PM 57.0 °F - 28.9 °F 34% 30.08 in 10.0 mi North 19.6 mph 29.9 mph N/A   Clear
3:52 PM 57.9 °F - 26.1 °F 30% 30.08 in 10.0 mi North 18.4 mph 29.9 mph N/A   Clear
4:52 PM 57.9 °F - 27.0 °F 31% 30.08 in 10.0 mi NNW 19.6 mph 29.9 mph N/A   Clear
5:52 PM 55.9 °F - 25.0 °F 30% 30.09 in 10.0 mi North 18.4 mph 33.4 mph N/A   Clear
6:52 PM 52.0 °F - 26.1 °F 37% 30.10 in 10.0 mi NNW 11.5 mph - N/A   Clear
7:52 PM 46.9 °F - 26.1 °F 44% 30.13 in 10.0 mi North 6.9 mph - N/A   Clear
8:52 PM 43.0 °F 38.2 °F 28.9 °F 58% 30.13 in 10.0 mi NNW 8.1 mph - N/A   Clear
9:52 PM 45.0 °F 40.1 °F 28.0 °F 52% 30.13 in 10.0 mi NNW 9.2 mph - N/A   Clear
10:52 PM 43.0 °F 38.2 °F 28.0 °F 56% 30.13 in 10.0 mi NNW 8.1 mph - N/A   Clear
11:52 PM 41.0 °F 36.4 °F 28.0 °F 60% 30.12 in 10.0 mi North 6.9 mph - N/A   Clear